Location: Brunembert
(50.7122°N, 1.8935°E)
Time: 05:03:50
(UTC+00:00)

Cosmos 2227 Rocket - Pass Details

Date: 22 April 2021
Orbit: 840 x 844 km, 71.0° (Epoch: 06 May)

Event Time Altitude Azimuth Distance (km) Brightness Sun altitude
Rises 20:34:22 0° 199° (SSW) 3,390 5.1 -13.7°
Reaches altitude 10° 20:36:48 10° 197° (SSW) 2,458 4.4 -14.0°
Maximum altitude 20:42:25 70° 115° (ESE) 900 2.1 -14.7°
Drops below altitude 10° 20:48:03 10° 33° (NNE) 2,472 4.8 -15.3°
Sets 20:50:31 0° 31° (NNE) 3,410 5.5 -15.6°
